Regional Weather Roundup
Issued by NWS

Home | Current Version | Previous Version | Text Only | Print | Product List | Glossary Off
Versions: 1 2 3 4 5 6 7 8 9 10 11 12 13 14 15 16 17 18 19 20 21 22 23 24 25 26 27 28 29 30 31 32 33 34 35 36 37 38 39 40 41 42 43 44 45 46 47 48 49 50

000
ASUS43 KOAX 241602
RWRNE

WEATHER ROUNDUP FOR NEBRASKA
NATIONAL WEATHER SERVICE OMAHA NE
1000 AM CST FRI FEB 24 2017

NOTES: SATELLITE DATA IS BEING USED TO AUGMENT CLOUD COVER ABOVE
       12000 FEET.
       "FAIR" INDICATES FEW OR NO CLOUDS BELOW 12,000 FEET WITH NO
       SIGNIFICANT WEATHER AND/OR OBSTRUCTIONS TO VISIBILITY.

  * THESE STATIONS DO NOT REPORT WEATHER SUCH AS RAIN...SNOW OR FOG.

NEZ001>004-019>022-054>056-241700-
NEBRASKA PANHANDLE

CITY           SKY/WX    TMP DP  RH WIND       PRES   REMARKS
SCOTTSBLUFF    FLURRIES  23  15  71 VRB3      30.01R
ALLIANCE       CLOUDY    19  15  84 N12       29.99R WCI   7
CHADRON        LGT SNOW  19  15  84 NE14      30.06R FOG     WCI   6
KIMBALL        CLOUDY    19  17  93 NE8       29.95R FOG     WCI   9
SIDNEY         LGT SNOW  20  16  84 N14       29.97R FOG     WCI   7
$$

NEZ057>060-069>072-079>082-241700-
SOUTHWEST NEBRASKA

CITY           SKY/WX    TMP DP  RH WIND       PRES   REMARKS
NORTH PLATTE   CLOUDY    24  17  74 N20G29    29.98R WCI  10
IMPERIAL       MIX PCPN  23  19  85 N20       29.98R FOG     WCI   8
LEXINGTON      LGT SNOW  22  18  83 N28G35    29.96R WCI   5
MCCOOK         LGT SNOW  25  22  88 N23       29.95R FOG     WCI  10
OGALLALA       CLOUDY    26  19  74 N21       30.00R WCI  11
$$

NEZ005>010-023>029-035>040-094-241700-
NORTH CENTRAL NEBRASKA

CITY           SKY/WX    TMP DP  RH WIND       PRES   REMARKS
VALENTINE      CLOUDY    19  11  70 N14       30.05R WCI   6
AINSWORTH      CLOUDY    18  14  85 N25       30.02R WCI   0
BROKEN BOW     CLOUDY    20  16  84 N29G35    29.95R FOG     WCI   1
O`NEILL        PTSUNNY   20  15  80 N22G31    29.97S WCI   4
ORD            CLOUDY    20  13  74 N24G36    29.95R HAZE    WCI   3
THEDFORD       CLOUDY    19  14  80 N23G29    30.01R HAZE    WCI   2
$$

NEZ041-046>049-061>064-073>077-083>087-241700-
SOUTH CENTRAL NEBRASKA

CITY           SKY/WX    TMP DP  RH WIND       PRES   REMARKS
GRAND ISLAND   FOG       20  18  92 N29G39    29.90R VSB 1/2 WCI   1
AURORA         SNOW      21  19  92 N22       29.89R VSB 1/2 WCI   5
HASTINGS       FOG       21  18  88 N26G44    29.90R VSB 1/4 WCI   4
HEBRON         LGT SNOW  25  23  90 N14       29.86R WCI  13
HOLDREGE         N/A     22  19  89 N17G31    29.92R WCI   8
KEARNEY *      CLOUDY   N/A N/A N/A N25G32    29.91R VSB 1/2
YORK           HVY SNOW  23  21  93 N17G29    29.85R WCI   9
$$

NEZ011>018-030>034-042>045-241700-
NORTHEAST NEBRASKA

CITY           SKY/WX    TMP DP  RH WIND       PRES   REMARKS
NORFOLK        CLOUDY    21  15  78 N24G35    29.88R HAZE    WCI   4
ALBION         CLOUDY    22  16  76 N23G36    29.91R HAZE    WCI   6
BLAIR          SNOW      26  23  90 N25G31    29.76R VSB 1/2 WCI  10
FREMONT        CLOUDY    25  23  91 N16G23    29.82R WCI  13
TEKAMAH        FOG       25  22  88 N29G36    29.82R VSB 1/2 WCI   8
WAYNE            N/A     22  19  89 N23G30    29.88R WCI   6
$$

NEZ050>053-065>068-078-088>093-241700-
SOUTHEAST NEBRASKA

CITY           SKY/WX    TMP DP  RH WIND       PRES   REMARKS
LINCOLN        SNOW      26  24  92 N26G32    29.82R VSB 1/2 WCI  10
OMAHA EPPLEY   LGT SNOW  27  22  81 N24G31    29.77S VSB 1   WCI  12
BEATRICE       LGT SNOW  28  26  92 N22G29    29.81R WCI  14
FALLS CITY     MIX PCPN  32  29  88 N17G30    29.72R WCI  21
NEBRASKA CITY  LGT SNOW  28  25  90 N25G31    29.75R WCI  13
PLATTSMOUTH    FLURRIES  27  22  81 N13G29    29.77R WCI  16
$$

NEZ044-045-051>053-067-241700-
OMAHA AREA

CITY           SKY/WX    TMP DP  RH WIND       PRES   REMARKS
OMAHA EPPLEY   LGT SNOW  27  22  81 N24G31    29.77S VSB 1   WCI  12
BLAIR          SNOW      26  23  90 N25G31    29.76R VSB 1/2 WCI  10
FREMONT        CLOUDY    25  23  91 N16G23    29.82R WCI  13
MILLARD        LGT SNOW  28  24  84 N16G24    29.79R WCI  16
OFFUTT AFB     FLURRIES  27  21  80 N10       29.78R WCI  17
PLATTSMOUTH    FLURRIES  27  22  81 N13G29    29.77R WCI  16
WAHOO            N/A     25  23  91 N22       29.81R WCI  10
$$




USA.gov is the U.S. government's official web portal to all federal, state and local government web resources and services.